Weather History for Aberdeen, SD

Change the Weather History Date:

Tuesday, June 18, 2013

  Actual Average Record
Temperature  
Mean Temperature 66 °F 66 °F  
Max Temperature 82 °F 78 °F 108 °F (1933)
Min Temperature 50 °F 55 °F 38 °F (1902)
Degree Days  
Heating Degree Days 0 2  
Month to date heating degree days 81 60  
Since 1 June heating degree days 81 60  
Since 1 July heating degree days 9073 8518  
Cooling Degree Days 1 3  
Month to date cooling degree days 15 39  
Year to date cooling degree days 36 62  
Since 1 June cooling degree days 15 39  
Growing Degree Days 16 (Base 50)    
Moisture  
Dew Point 53 °F    
Average Humidity 67    
Maximum Humidity 100    
Minimum Humidity 33    
Precipitation  
Precipitation 0.00 in 0.13 in 1.10 in (1908)
Month to date precipitation 1.40 2.20  
Year to date precipitation 9.92 9.34  
Sea Level Pressure  
Sea Level Pressure 30.03 in    
Wind  
Wind Speed 4 mph (North)    
Max Wind Speed 8 mph    
Max Gust Speed 12 mph    
Visibility 9 miles    
Events      
T = Trace of Precipitation, MM = Missing Value Source: NWS Daily Summary

Daily Weather History Graph

Daily Weather History Graph

Search for Another Location

Airport:

Trip Planner

Search our weather history database for the weather conditions in past years. The results will help you decide how hot, cold, wet, or windy it might be!

Date:

Astronomy

Jun. 18, 2013 Rise Set
Actual Time 5:44 AM CDT 9:25 PM CDT
Civil Twilight 5:06 AM CDT 10:03 PM CDT
Nautical Twilight 4:16 AM CDT 10:53 PM CDT
Astronomical Twilight 3:07 AM CDT 12:02 AM CDT
Moon 4:00 PM CDT (6/18) 2:06 AM CDT (6/18)
Length of Visible Light 16h 56m
Length of Day
15h 40m
Waxing Gibbous, 71% of the Moon is Illuminated
Jun 18
Waxing Gibbous
Jun 23
Full
Jun 29
Last Quarter
Jul 8
New
Jul 15
First Quarter

Hourly Weather History & Observations

Time (CDT) Temp. Dew Point Humidity Pressure Visibility Wind Dir Wind Speed Gust Speed Precip Events Conditions
12:53 AM 57.0 °F 52.0 °F 83% 30.06 in 10.0 mi North 5.8 mph - 0.01 in   Mostly Cloudy
1:53 AM 54.0 °F 52.0 °F 93% 30.05 in 10.0 mi Calm Calm - N/A   Partly Cloudy
2:53 AM 54.0 °F 52.0 °F 93% 30.05 in 10.0 mi North 5.8 mph - N/A   Clear
3:53 AM 52.0 °F 51.1 °F 97% 30.05 in 10.0 mi North 3.5 mph - N/A   Clear
4:53 AM 50.0 °F 50.0 °F 100% 30.07 in 10.0 mi Calm Calm - N/A   Clear
5:53 AM 51.1 °F 51.1 °F 100% 30.07 in 8.0 mi North 4.6 mph - N/A   Clear
6:53 AM 53.1 °F 52.0 °F 96% 30.09 in 6.0 mi WSW 6.9 mph - N/A   Clear
7:11 AM 53.6 °F 53.6 °F 100% 30.10 in 6.0 mi SW 6.9 mph - N/A   Partly Cloudy
7:53 AM 59.0 °F 55.0 °F 87% 30.09 in 8.0 mi Calm Calm - N/A   Clear
8:53 AM 62.1 °F 57.0 °F 84% 30.09 in 10.0 mi NNE 8.1 mph - N/A   Clear
9:53 AM 64.9 °F 57.0 °F 75% 30.09 in 10.0 mi East 6.9 mph - N/A   Clear
10:53 AM 69.1 °F 55.9 °F 63% 30.07 in 10.0 mi Calm Calm - N/A   Clear
11:53 AM 70.0 °F 55.9 °F 61% 30.06 in 10.0 mi Variable 3.5 mph - N/A   Clear
12:53 PM 73.0 °F 55.0 °F 53% 30.05 in 10.0 mi Calm Calm - N/A   Clear
1:53 PM 75.0 °F 55.0 °F 50% 30.03 in 10.0 mi Calm Calm - N/A   Partly Cloudy
2:53 PM 77.0 °F 53.1 °F 43% 30.01 in 10.0 mi Variable 3.5 mph - N/A   Partly Cloudy
3:53 PM 77.0 °F 51.1 °F 40% 30.00 in 10.0 mi SW 4.6 mph - N/A   Clear
4:53 PM 79.0 °F 51.1 °F 38% 29.99 in 10.0 mi WNW 6.9 mph - N/A   Partly Cloudy
5:53 PM 79.0 °F 51.1 °F 38% 29.97 in 10.0 mi West 4.6 mph - N/A   Clear
6:53 PM 82.0 °F 50.0 °F 33% 29.95 in 10.0 mi North 3.5 mph - N/A   Clear
7:53 PM 80.1 °F 48.9 °F 34% 29.94 in 10.0 mi Calm Calm - N/A   Clear
8:53 PM 75.9 °F 46.0 °F 35% 29.95 in 10.0 mi Calm Calm - N/A   Clear
9:53 PM 64.9 °F 53.1 °F 65% 29.95 in 10.0 mi East 5.8 mph - N/A   Clear
10:53 PM 64.9 °F 53.1 °F 65% 29.94 in 10.0 mi East 4.6 mph - N/A   Clear
11:53 PM 60.1 °F 55.0 °F 83% 29.96 in 10.0 mi SE 5.8 mph - N/A   Clear